GW0415 Weather Reports


time (UTC)temp
C
wind
direction
speed
KPH
gust
KPH
rain 1hr
cm
rain 24hr
cm
rain mn
cm
humidity
%
barometer
mb
20260504081703 13 152 8.0 8.0 0.00 0.00 0.00 47 996.6
20260504081159 13 180 4.8 4.8 0.00 0.00 0.00 47 996.9
20260504080655 13 169 3.2 4.8 0.00 0.00 0.00 46 996.8
20260504080152 13 113 3.2 4.8 0.00 0.00 0.00 47 996.9
20260504070120 12 63 0.0 3.2 0.00 0.00 0.00 49 998.1
20260504050508 11 90 0.0 0.0 0.00 0.00 0.00 57 1000.2
20260504050005 11 90 0.0 0.0 0.00 0.00 0.00 57 1000.3
20260504045501 11 103 0.0 1.6 0.00 0.00 0.00 57 1000.5
20260504044957 11 81 0.0 0.0 0.00 0.00 0.00 56 1000.7
20260504044455 11 90 0.0 0.0 0.00 0.00 0.00 55 1000.8
20260504043952 11 69 0.0 1.6 0.00 0.00 0.00 55 1000.6
20260504043449 11 99 0.0 1.6 0.00 0.00 0.00 55 1000.9
20260504042946 11 99 0.0 0.0 0.00 0.00 0.00 56 1000.9
20260504042443 11 90 0.0 0.0 0.00 0.00 0.00 56 1000.9
20260504041940 11 90 0.0 0.0 0.00 0.00 0.00 57 1001.0
20260504041436 11 81 0.0 0.0 0.00 0.00 0.00 56 1001.2
20260504040932 11 81 0.0 0.0 0.00 0.00 0.00 55 1001.1
20260504040430 11 90 0.0 0.0 0.00 0.00 0.00 55 1001.1
20260504035925 11 90 1.6 1.6 0.00 0.00 0.00 55 1001.5
20260504035423 11 99 0.0 0.0 0.00 0.00 0.00 54 1001.7
20260504034920 11 99 0.0 0.0 0.00 0.00 0.00 53 1001.7
20260504034417 11 98 0.0 0.0 0.00 0.00 0.00 53 1001.8
20260504033913 11 98 0.0 0.0 0.00 0.00 0.00 53 1001.9
20260504033411 12 98 0.0 0.0 0.00 0.00 0.00 52 1001.9
20260504032903 12 98 0.0 0.0 0.00 0.00 0.00 51 1002.2
20260504032400 12 98 0.0 0.0 0.00 0.00 0.00 51 1002.1
20260504031856 12 90 0.0 0.0 0.00 0.00 0.00 49 1002.1
20260504031353 12 90 0.0 0.0 0.00 0.00 0.00 48 1002.2
20260504030850 12 90 0.0 0.0 0.00 0.00 0.00 47 1002.1
20260504030348 13 90 0.0 0.0 0.00 0.00 0.00 46 1002.1
20260504025843 13 90 0.0 0.0 0.00 0.00 0.00 45 1002.1
20260504025340 13 90 0.0 0.0 0.00 0.00 0.00 44 1002.3
20260504024837 13 90 0.0 0.0 0.00 0.00 0.00 44 1002.2
20260504024333 13 90 0.0 0.0 0.00 0.00 0.00 43 1002.2
20260504023830 14 90 0.0 0.0 0.00 0.00 0.00 42 1002.0
20260504023327 14 90 0.0 0.0 0.00 0.00 0.00 41 1002.3
20260504022823 15 90 0.0 0.0 0.00 0.00 0.00 40 1002.4
20260504022320 15 90 0.0 0.0 0.00 0.00 0.00 38 1002.5
20260504021816 15 90 0.0 0.0 0.00 0.00 0.00 38 1002.6
20260504021314 15 90 0.0 0.0 0.00 0.00 0.00 37 1002.4
20260504020811 16 90 0.0 0.0 0.00 0.00 0.00 36 1002.7
20260504020308 16 90 0.0 0.0 0.00 0.00 0.00 36 1002.5
20260504015803 16 90 0.0 0.0 0.00 0.00 0.00 36 1002.4
20260504015300 16 23 0.0 0.0 0.00 0.00 0.00 35 1002.7
20260504014756 16 209 0.0 3.2 0.00 0.00 0.00 35 1002.5
20260504014252 16 350 0.0 0.0 0.00 0.00 0.00 35 1002.6
20260504013750 17 350 0.0 0.0 0.00 0.00 0.00 34 1002.4
20260504013248 17 350 0.0 3.2 0.00 0.00 0.00 33 1002.5
20260504012744 17 151 0.0 0.0 0.00 0.00 0.00 33 1002.6
20260504012242 17 151 0.0 0.0 0.00 0.00 0.00 32 1002.5
20260504011739 18 66 0.0 1.6 0.00 0.00 0.00 31 1002.5
20260504011235 18 35 0.0 3.2 0.00 0.00 0.00 31 1002.7
20260504010731 18 180 1.6 4.8 0.00 0.00 0.00 30 1002.7
20260504010227 18 99 0.0 0.0 0.00 0.00 0.00 30 1002.7
20260504005724 18 15 3.2 3.2 0.00 0.00 0.00 30 1002.7
20260504005221 19 151 0.0 3.2 0.00 0.00 0.00 30 1002.7
20260504004719 19 143 0.0 8.0 0.00 0.00 0.00 30 1002.8
20260504004215 19 145 0.0 0.0 0.00 0.00 0.00 29 1002.6
20260504003712 20 340 0.0 3.2 0.00 0.00 0.00 29 1002.7
20260504003209 20 174 0.0 4.8 0.00 0.00 0.00 29 1002.8
20260504002706 20 98 0.0 4.8 0.00 0.00 0.00 29 1002.8
20260504002203 20 66 1.6 8.0 0.00 0.00 0.00 30 1002.7
20260504001701 20 123 0.0 6.4 0.00 0.00 0.00 29 1002.8
20260504001157 20 168 0.0 6.4 0.00 0.00 0.00 29 1003.0
20260504000654 20 334 1.6 6.4 0.00 0.00 0.00 28 1002.7
20260504000151 20 98 0.0 4.8 0.00 0.00 0.00 29 1003.0
20260503235649 20 84 0.0 3.2 0.00 0.00 0.00 28 1002.8
20260503235145 20 94 0.0 3.2 0.00 0.00 0.00 28 1003.0
20260503234644 20 285 1.6 6.4 0.00 0.00 0.00 28 1002.8
20260503234142 20 139 0.0 4.8 0.00 0.00 0.00 27 1002.9
20260503233638 20 117 0.0 4.8 0.00 0.00 0.00 27 1002.9
20260503233134 20 140 0.0 4.8 0.00 0.00 0.00 27 1002.9
20260503232631 21 93 4.8 11.3 0.00 0.00 0.00 26 1003.1
20260503232128 21 40 0.0 3.2 0.00 0.00 0.00 27 1003.3
20260503231626 21 23 3.2 4.8 0.00 0.00 0.00 26 1003.1
20260503231122 21 180 0.0 6.4 0.00 0.00 0.00 27 1003.4
20260503230620 21 162 0.0 8.0 0.00 0.00 0.00 27 1003.3
20260503230117 21 114 0.0 3.2 0.00 0.00 0.00 27 1003.2
20260503225614 21 146 3.2 6.4 0.00 0.00 0.00 26 1003.1
20260503225113 21 106 1.6 4.8 0.00 0.00 0.00 25 1003.5
20260503224611 21 90 0.0 11.3 0.00 0.00 0.00 26 1003.3
20260503224109 21 83 0.0 4.8 0.00 0.00 0.00 25 1003.3
20260503223607 21 188 0.0 3.2 0.00 0.00 0.00 25 1003.6
20260503223102 21 60 3.2 8.0 0.00 0.00 0.00 25 1003.5
20260503222600 22 96 1.6 4.8 0.00 0.00 0.00 25 1003.5
20260503222058 21 82 0.0 4.8 0.00 0.00 0.00 25 1003.4
20260503221556 21 221 3.2 4.8 0.00 0.00 0.00 26 1003.4
20260503221053 21 319 0.0 4.8 0.00 0.00 0.00 28 1003.7
20260503220549 21 262 1.6 9.7 0.00 0.00 0.00 26 1003.6
20260503220046 21 160 1.6 8.0 0.00 0.00 0.00 25 1003.7
20260503215543 21 151 0.0 9.7 0.00 0.00 0.00 25 1003.7
20260503215040 21 15 0.0 1.6 0.00 0.00 0.00 26 1003.6
20260503214539 21 139 0.0 9.7 0.00 0.00 0.00 28 1003.6
20260503214035 21 180 1.6 11.3 0.00 0.00 0.00 27 1003.6
20260503213533 21 186 1.6 16.1 0.00 0.00 0.00 27 1003.6
20260503213030 22 240 0.0 3.2 0.00 0.00 0.00 28 1003.8
20260503212527 21 140 0.0 4.8 0.00 0.00 0.00 28 1003.7
20260503212025 21 90 0.0 4.8 0.00 0.00 0.00 28 1004.0
20260503211521 22 168 4.8 8.0 0.00 0.00 0.00 26 1004.0
20260503211017 22 166 1.6 4.8 0.00 0.00 0.00 29 1003.8
20260503210514 22 15 4.8 9.7 0.00 0.00 0.00 27 1003.7
20260503210010 22 297 0.0 4.8 0.00 0.00 0.00 30 1004.0
20260503205506 22 90 0.0 3.2 0.00 0.00 0.00 29 1003.7
20260503205003 22 96 0.0 4.8 0.00 0.00 0.00 30 1004.1
20260503204500 22 114 1.6 4.8 0.00 0.00 0.00 30 1004.1
20260503203956 22 19 3.2 6.4 0.00 0.00 0.00 31 1004.1
20260503203454 22 144 3.2 4.8 0.00 0.00 0.00 32 1004.1
20260503202950 22 75 0.0 4.8 0.00 0.00 0.00 30 1004.2
20260503202449 22 69 4.8 4.8 0.00 0.00 0.00 30 1004.2
20260503201947 22 356 0.0 3.2 0.00 0.00 0.00 30 1004.1
20260503201444 22 18 4.8 8.0 0.00 0.00 0.00 29 1004.2
20260503200941 22 11 3.2 6.4 0.00 0.00 0.00 29 1004.5
20260503200438 22 83 1.6 9.7 0.00 0.00 0.00 28 1004.4
20260503195934 21 187 1.6 8.0 0.00 0.00 0.00 29 1004.5
20260503195432 21 128 0.0 11.3 0.00 0.00 0.00 28 1004.7
20260503194928 21 166 1.6 12.9 0.00 0.00 0.00 28 1004.9
20260503194425 22 334 3.2 9.7 0.00 0.00 0.00 29 1004.7
20260503193920 22 122 6.4 9.7 0.00 0.00 0.00 28 1004.7
20260503193416 22 307 0.0 9.7 0.00 0.00 0.00 28 1004.9
20260503192912 21 191 3.2 4.8 0.00 0.00 0.00 29 1004.8
20260503192409 22 46 6.4 9.7 0.00 0.00 0.00 27 1004.5
20260503191904 21 176 3.2 9.7 0.00 0.00 0.00 27 1004.8
20260503191402 21 334 0.0 11.3 0.00 0.00 0.00 27 1004.8
20260503190858 22 120 3.2 8.0 0.00 0.00 0.00 28 1005.0
20260503190355 22 257 3.2 11.3 0.00 0.00 0.00 31 1004.7
20260503185852 21 232 0.0 9.7 0.00 0.00 0.00 30 1004.6
20260503185349 22 0 0.0 6.4 0.00 0.00 0.00 29 1004.9
20260503184848 22 19 9.7 14.5 0.00 0.00 0.00 29 1004.7
20260503184345 22 150 4.8 6.4 0.00 0.00 0.00 30 1005.0
20260503183840 22 286 1.6 6.4 0.00 0.00 0.00 32 1005.0
20260503183338 22 48 3.2 9.7 0.00 0.00 0.00 31 1004.9
20260503182835 22 106 1.6 9.7 0.00 0.00 0.00 32 1005.1
20260503182334 22 337 0.0 4.8 0.00 0.00 0.00 36 1005.1
20260503181831 21 132 3.2 14.5 0.00 0.00 0.00 33 1005.2
20260503181328 21 163 3.2 8.0 0.00 0.00 0.00 33 1005.1
20260503180824 22 30 3.2 6.4 0.00 0.00 0.00 33 1004.9
20260503180322 21 74 3.2 9.7 0.00 0.00 0.00 33 1005.0
20260503175818 22 84 0.0 8.0 0.00 0.00 0.00 36 1005.0
20260503175317 21 265 0.0 8.0 0.00 0.00 0.00 37 1005.0
20260503174812 22 23 0.0 8.0 0.00 0.00 0.00 37 1005.2
20260503174310 22 154 0.0 9.7 0.00 0.00 0.00 34 1005.1
20260503173806 22 114 0.0 6.4 0.00 0.00 0.00 35 1005.2
20260503173302 22 262 1.6 8.0 0.00 0.00 0.00 34 1005.3
20260503172759 21 346 1.6 9.7 0.00 0.00 0.00 33 1005.4
20260503172256 22 0 0.0 4.8 0.00 0.00 0.00 36 1005.2
20260503171752 22 328 4.8 4.8 0.00 0.00 0.00 37 1005.3
20260503171249 21 24 3.2 8.0 0.00 0.00 0.00 38 1005.0
20260503170746 21 319 3.2 17.7 0.00 0.00 0.00 36 1005.4
20260503170243 21 169 6.4 22.5 0.00 0.00 0.00 37 1005.4
20260503160205 20 294 1.6 11.3 0.00 0.00 0.00 38 1005.3
20260503150635 20 19 0.0 11.3 0.00 0.00 0.00 39 1005.1
20260503150131 20 0 4.8 9.7 0.00 0.00 0.00 39 1004.7
20260503131025 17 358 6.4 8.0 0.00 0.00 0.00 44 1004.2
20260503130522 16 26 0.0 6.4 0.00 0.00 0.00 45 1004.1
20260503110413 11 75 1.6 1.6 0.00 0.00 0.00 55 1002.9